Location: Newark
(51.5114°N, 0.0848°W)
Time: 01:19:24
(UTC+00:00)

N. Korean satellite - Pass Details

Date: 29 October 2019
Orbit: 456 x 506 km, 97.2° (Epoch: 20 November)

Event Time Altitude Azimuth Distance (km) Brightness Sun altitude
Rises 05:37:52 0° 18° (NNE) 2,589 10.4 -11.4°
Reaches altitude 10° 05:40:01 10° 26° (NNE) 1,708 9.6 -11.1°
Maximum altitude 05:43:32 43° 98° (E) 721 8.1 -10.5°
Drops below altitude 10° 05:47:04 10° 171° (S) 1,712 9.6 -10.0°
Sets 05:49:14 0° 178° (S) 2,595 10.4 -9.6°
